Regional Weather Roundup
Issued by NWS

Home | Current Version | Previous Version | Text Only | Print | Product List | Glossary Off
Versions: 1 2 3 4 5 6 7 8 9 10 11 12 13 14 15 16 17 18 19 20 21 22 23 24 25 26 27

000
ASUS45 KBOI 211910
RWRID

IDAHO REGIONAL WEATHER ROUNDUP
NATIONAL WEATHER SERVICE BOISE ID
1200 PM MST TUE NOV 21 2017

NOTE: "FAIR" INDICATES FEW OR NO CLOUDS BELOW 12000 FEET
WITH NO SIGNIFICANT WEATHER AND/OR OBSTRUCTIONS TO VISIBILITY

IDZ012-014-212000-
SOUTHWEST IDAHO


CITY           SKY/WX    TMP DP  RH WIND       PRES   REMARKS
BOISE          CLOUDY    56  46  69 SE9       30.25F
CALDWELL       CLOUDY    54  49  83 E5        30.25F
MOUNTAIN HOME  PTSUNNY   56  56 100 E10       30.26F
$$

IDZ016-017-212000-
SOUTHCENTRAL IDAHO


CITY           SKY/WX    TMP DP  RH WIND       PRES   REMARKS
BURLEY         SUNNY     60  46  59 W10       30.30F
JEROME         MOSUNNY   56  46  69 NW6       30.31S
TWIN FALLS     MOSUNNY   60  47  61 W9        30.31S
$$

IDZ019>023-212000-
SOUTHEAST IDAHO


CITY           SKY/WX    TMP DP  RH WIND       PRES   REMARKS
IDAHO FALLS    CLOUDY    37  37 100 VRB3      30.37R FOG
POCATELLO      CLOUDY    45  40  82 NW6       30.36R
REXBURG        CLOUDY    39  37  92 W5        30.35R
$$

IDZ006-010-011-018-031-032-212000-
CENTRAL IDAHO MOUNTAINS


CITY           SKY/WX    TMP DP  RH WIND       PRES   REMARKS
MCCALL         FOG       37  37 100 CALM      30.25F VSB 1/4
HAILEY         MOSUNNY   45  37  76 CALM      30.34F
STANLEY          N/A     39  36  89 CALM      30.33R
SALMON         CLOUDY    37  36  96 CALM      30.32F
CHALLIS        PTSUNNY   39  34  82 CALM      30.30F
$$

IDZ002-004-006-007-026-212000-
NORTHERN IDAHO


CITY           SKY/WX    TMP DP  RH WIND       PRES   REMARKS
LEWISTON       LGT RAIN  41  40  96 CALM      30.18F VSB 1
LOWELL           N/A     42  40  92 CALM      30.28F
COEUR D`ALENE  LGT RAIN  39  38  96 NE7       30.18F WCI  34
MULLAN PASS    CLOUDY    30  27  88 S8        30.15S WCI  22
$$




USA.gov is the U.S. government's official web portal to all federal, state and local government web resources and services.